FW2602 Weather Reports


Display with metric or nautical units.
time (UTC)temp
F
wind
direction
speed
MPH
gust
MPH
rain 1hr
in
rain 24hr
in
rain mn
in
humidity
%
barometer
mb
20260906203019 69 273 0.0 2.0 0.00 0.06 0.03 65 1015.6
20260906202507 69 285 0.0 2.0 0.00 0.06 0.03 63 1015.6
20260906202015 69 291 0.0 5.0 0.00 0.06 0.03 61 1015.5
20260906201525 69 247 0.0 5.0 0.00 0.06 0.03 63 1015.6
20260906201010 69 93 0.0 5.0 0.00 0.06 0.03 64 1015.6
20260906200520 68 91 1.0 6.0 0.00 0.06 0.03 66 1015.6
20260906200008 69 89 3.0 5.0 0.00 0.06 0.03 61 1015.6
20260906195516 69 302 0.0 3.0 0.00 0.06 0.03 67 1015.6
20260906195020 68 311 1.0 3.0 0.00 0.06 0.03 72 1015.6
20260906194511 67 301 0.0 3.0 0.00 0.06 0.03 69 1015.7
20260906194022 66 300 0.0 3.0 0.00 0.06 0.03 67 1015.8
20260906193509 67 92 0.0 4.0 0.00 0.06 0.03 66 1015.7
20260906193014 67 72 1.0 5.0 0.00 0.06 0.03 67 1015.8
20260906192523 66 77 1.0 6.0 0.00 0.06 0.03 70 1015.8
20260906192013 66 89 1.0 6.0 0.00 0.06 0.03 70 1015.8
20260906191605 66 61 1.0 3.0 0.00 0.06 0.03 69 1015.9
20260906191021 67 291 0.0 3.0 0.00 0.06 0.03 69 1015.9
20260906190512 66 256 0.0 4.0 0.00 0.06 0.03 69 1015.9
20260906190019 66 278 2.0 4.0 0.00 0.06 0.03 70 1015.9
20260906185529 66 134 0.0 2.0 0.00 0.06 0.03 68 1015.9
20260906185011 65 255 0.0 2.0 0.00 0.06 0.03 73 1016.0
20260906184518 65 108 0.0 6.0 0.00 0.06 0.03 70 1016.0
20260906184023 65 76 1.0 6.0 0.00 0.06 0.03 68 1016.0
20260906183513 66 132 0.0 6.0 0.00 0.06 0.03 70 1016.0
20260906183014 67 318 0.0 2.0 0.00 0.06 0.03 68 1016.0
20260906182524 67 285 0.0 6.0 0.00 0.06 0.03 68 1016.0
20260906182022 67 56 2.0 6.0 0.00 0.06 0.03 66 1016.0
20260906181534 67 106 0.0 3.0 0.00 0.06 0.03 71 1016.0
20260906181018 66 270 0.0 4.0 0.00 0.06 0.03 70 1016.0
20260906180505 66 294 0.0 5.0 0.00 0.06 0.03 73 1016.0
20260906180020 65 62 2.0 6.0 0.00 0.06 0.03 73 1016.1
20260906175518 65 21 2.0 6.0 0.00 0.06 0.03 73 1016.2
20260906175011 64 64 1.0 13.0 0.00 0.06 0.03 73 1016.2
20260906174518 65 69 5.0 14.0 0.00 0.06 0.03 71 1016.3
20260906174023 65 134 2.0 9.0 0.00 0.06 0.03 73 1016.1
20260906173509 65 71 1.0 8.0 0.00 0.06 0.03 73 1016.1
20260906173016 65 69 1.0 8.0 0.00 0.06 0.03 73 1016.1
20260906172526 65 37 0.0 2.0 0.00 0.06 0.03 74 1016.1
20260906172009 65 308 0.0 2.0 0.00 0.06 0.03 75 1016.1
20260906171517 64 106 0.0 3.0 0.00 0.06 0.03 77 1016.3
20260906171020 63 71 1.0 5.0 0.00 0.06 0.03 75 1016.3
20260906170523 64 74 2.0 6.0 0.00 0.06 0.03 74 1016.3
20260906170008 65 60 3.0 5.0 0.00 0.06 0.03 72 1016.2
20260906165514 65 86 0.0 2.0 0.00 0.06 0.03 69 1016.2
20260906165015 65 154 0.0 3.0 0.00 0.06 0.03 71 1016.1
20260906164523 65 300 0.0 3.0 0.00 0.06 0.03 75 1016.2
20260906164007 64 8 0.0 3.0 0.00 0.06 0.03 73 1016.2
20260906163518 64 108 0.0 2.0 0.00 0.06 0.03 75 1016.2
20260906163024 64 101 0.0 5.0 0.00 0.06 0.03 75 1016.3
20260906162528 65 58 2.0 5.0 0.00 0.06 0.03 73 1016.3
20260906162014 65 68 0.0 4.0 0.00 0.06 0.03 74 1016.3
20260906161524 65 121 0.0 5.0 0.00 0.06 0.03 74 1016.3
20260906161011 65 76 0.0 4.0 0.00 0.06 0.03 74 1016.3
20260906160518 64 67 0.0 4.0 0.00 0.06 0.03 77 1016.3
20260906160018 64 312 0.0 1.0 0.00 0.06 0.03 78 1016.4
20260906155527 63 96 0.0 6.0 0.00 0.06 0.03 79 1016.4
20260906155014 63 83 3.0 6.0 0.00 0.06 0.03 77 1016.4
20260906154536 63 84 0.0 5.0 0.00 0.06 0.03 76 1016.4
20260906154023 63 83 1.0 5.0 0.00 0.06 0.03 75 1016.3
20260906153509 63 74 0.0 4.0 0.00 0.06 0.03 76 1016.2
20260906153017 63 332 0.0 1.0 0.00 0.06 0.03 81 1016.2
20260906152521 63 314 0.0 4.0 0.00 0.06 0.03 81 1016.2
20260906152024 63 84 0.0 6.0 0.00 0.06 0.03 81 1016.2
20260906151513 62 75 1.0 5.0 0.00 0.06 0.03 81 1016.2
20260906151018 62 300 0.0 2.0 0.00 0.06 0.03 84 1016.2
20260906150527 62 267 0.0 1.0 0.00 0.06 0.03 84 1016.2
20260906150011 61 86 0.0 1.0 0.00 0.06 0.03 86 1016.2
20260906145519 61 86 0.0 1.0 0.00 0.06 0.03 84 1016.1
20260906145024 61 86 0.0 1.0 0.00 0.06 0.03 85 1016.2
20260906144511 61 86 0.0 1.0 0.00 0.06 0.03 84 1016.2
20260906144016 61 94 0.0 1.0 0.00 0.06 0.03 83 1016.1
20260906143518 61 98 0.0 1.0 0.00 0.06 0.03 83 1016.0
20260906143022 61 141 0.0 2.0 0.00 0.06 0.03 83 1016.0
20260906142508 61 110 0.0 3.0 0.00 0.06 0.03 82 1015.9
20260906142016 61 89 0.0 3.0 0.00 0.06 0.03 84 1015.8
20260906141529 61 181 0.0 3.0 0.00 0.06 0.03 83 1015.7
20260906141010 61 89 0.0 3.0 0.00 0.06 0.03 85 1015.7
20260906140519 61 280 0.0 2.0 0.00 0.06 0.03 85 1015.7
20260906140023 61 247 0.0 2.0 0.00 0.06 0.03 85 1015.6
20260906135510 61 331 0.0 4.0 0.00 0.06 0.03 87 1015.6
20260906135016 60 94 0.0 4.0 0.00 0.06 0.03 86 1015.7
20260906134530 60 91 0.0 2.0 0.00 0.06 0.03 87 1015.8
20260906134013 60 127 0.0 2.0 0.00 0.06 0.03 88 1015.8
20260906133518 60 115 0.0 1.0 0.00 0.06 0.03 89 1015.6
20260906133020 60 115 0.0 2.0 0.00 0.06 0.03 90 1015.7
20260906132510 60 294 0.0 2.0 0.00 0.06 0.03 90 1015.7
20260906132015 60 43 0.0 3.0 0.00 0.06 0.03 91 1015.6
20260906131525 59 73 0.0 4.0 0.00 0.06 0.03 91 1015.8
20260906131008 59 122 0.0 0.0 0.00 0.06 0.03 92 1015.8
20260906130520 59 121 0.0 2.0 0.00 0.06 0.03 92 1015.8
20260906130020 59 89 0.0 2.0 0.00 0.06 0.03 92 1015.8
20260906125509 59 51 0.0 2.0 0.00 0.06 0.03 92 1015.8
20260906125016 59 129 0.0 1.0 0.00 0.06 0.03 93 1015.7
20260906124522 59 135 0.0 1.0 0.00 0.06 0.03 94 1015.7
20260906124027 59 82 0.0 2.0 0.00 0.06 0.03 94 1015.7
20260906123516 59 289 0.0 2.0 0.00 0.06 0.03 95 1015.6
20260906123021 59 293 0.0 0.0 0.00 0.06 0.03 96 1015.5
20260906122525 58 293 0.0 0.0 0.00 0.06 0.03 96 1015.6
20260906122056 59 292 0.0 0.0 0.00 0.06 0.03 96 1015.7
20260906121019 58 292 0.0 1.0 0.00 0.06 0.03 97 1015.6
20260906120515 58 292 0.0 1.0 0.00 0.06 0.03 97 1015.5
20260906120014 58 293 0.0 1.0 0.00 0.06 0.03 97 1015.4
20260906115516 58 280 0.0 2.0 0.00 0.06 0.03 97 1015.5
20260906115013 58 289 0.0 2.0 0.00 0.06 0.03 97 1015.4
20260906114528 58 317 0.0 0.0 0.00 0.06 0.03 97 1015.4
20260906114012 58 317 0.0 0.0 0.00 0.06 0.03 97 1015.3
20260906113511 58 317 0.0 0.0 0.00 0.06 0.03 97 1015.2
20260906113011 58 318 0.0 0.0 0.00 0.06 0.03 97 1015.2
20260906112510 58 317 0.0 0.0 0.00 0.06 0.03 97 1015.0
20260906112013 58 318 0.0 0.0 0.00 0.06 0.03 97 1015.0
20260906111509 58 317 0.0 0.0 0.00 0.06 0.03 97 1014.9
20260906111008 58 317 0.0 0.0 0.00 0.06 0.03 97 1014.8
20260906110508 58 317 0.0 0.0 0.00 0.06 0.03 97 1014.8
20260906110011 58 317 0.0 1.0 0.00 0.06 0.03 97 1014.7
20260906105507 58 317 0.0 1.0 0.00 0.06 0.03 97 1014.6
20260906105007 58 317 0.0 0.0 0.00 0.06 0.03 97 1014.6
20260906104507 58 318 0.0 0.0 0.00 0.06 0.03 97 1014.6
20260906104005 58 317 0.0 0.0 0.00 0.06 0.03 97 1014.6
20260906103504 58 318 0.0 0.0 0.00 0.06 0.03 97 1014.5
20260906103004 58 317 0.0 1.0 0.00 0.06 0.03 97 1014.4
20260906102508 58 318 0.0 1.0 0.00 0.06 0.03 97 1014.3
20260906102003 58 318 0.0 0.0 0.00 0.06 0.03 97 1014.2
20260906101502 58 318 0.0 0.0 0.00 0.06 0.03 97 1014.1
20260906101003 58 318 0.0 0.0 0.00 0.06 0.03 97 1014.1
20260906100503 58 317 0.0 1.0 0.00 0.06 0.03 97 1014.0
20260906100104 58 318 0.0 1.0 0.00 0.06 0.03 97 1014.0
20260906095601 58 316 0.0 0.0 0.00 0.06 0.03 97 1013.8
20260906095059 58 318 0.0 0.0 0.00 0.06 0.03 97 1013.9
20260906094614 58 318 0.0 1.0 0.00 0.06 0.03 97 1013.7
20260906094058 58 62 0.0 0.0 0.00 0.06 0.03 97 1013.7
20260906093558 58 62 0.0 0.0 0.00 0.06 0.03 97 1013.7
20260906093130 58 63 0.0 0.0 0.00 0.06 0.03 97 1013.6
20260906092557 58 62 0.0 0.0 0.00 0.06 0.03 97 1013.6
20260906092056 58 62 0.0 0.0 0.00 0.06 0.03 97 1013.5
20260906091606 58 63 0.0 0.0 0.00 0.06 0.03 97 1013.6
20260906091057 58 62 0.0 0.0 0.00 0.06 0.03 97 1013.5
20260906090555 58 62 0.0 0.0 0.00 0.06 0.03 97 1013.3
20260906090054 58 63 0.0 0.0 0.00 0.06 0.03 97 1013.4
20260906085555 58 62 0.0 0.0 0.00 0.06 0.03 97 1013.3
20260906085053 58 62 0.0 0.0 0.00 0.06 0.03 97 1013.3
20260906084554 58 62 0.0 0.0 0.00 0.06 0.03 97 1013.2
20260906084056 58 62 0.0 0.0 0.00 0.06 0.03 97 1013.2
20260906083553 58 63 0.0 0.0 0.00 0.06 0.03 97 1013.1
20260906083053 58 62 0.0 0.0 0.00 0.06 0.03 97 1013.1
20260906082552 58 62 0.0 0.0 0.00 0.06 0.03 97 1013.1
20260906082052 58 62 0.0 0.0 0.00 0.06 0.03 97 1013.1
20260906081552 58 62 0.0 0.0 0.00 0.06 0.03 97 1013.2
20260906081051 58 63 0.0 0.0 0.00 0.06 0.03 97 1013.1
20260906080552 58 63 0.0 0.0 0.00 0.06 0.03 97 1013.1
20260906080053 57 62 0.0 0.0 0.00 0.06 0.03 97 1013.2
20260906075551 57 62 0.0 0.0 0.00 0.06 0.03 97 1013.1
20260906075051 57 63 0.0 0.0 0.00 0.06 0.03 97 1013.1
20260906074554 57 63 0.0 1.0 0.00 0.06 0.03 97 1013.0
20260906074050 57 63 0.0 1.0 0.00 0.06 0.03 97 1013.0
20260906073550 57 63 0.0 1.0 0.00 0.06 0.03 97 1013.1
20260906073050 57 62 0.0 1.0 0.00 0.06 0.03 97 1013.0
20260906072549 57 63 0.0 0.0 0.00 0.06 0.03 97 1013.0
20260906072049 58 63 0.0 0.0 0.00 0.06 0.03 97 1013.0
20260906071547 58 63 0.0 0.0 0.00 0.06 0.03 97 1012.9
20260906071047 58 62 0.0 0.0 0.00 0.06 0.03 97 1013.0
20260906070548 58 63 0.0 0.0 0.00 0.06 0.03 97 1012.9
20260906070045 58 62 0.0 0.0 0.00 0.06 0.03 97 1012.9
20260906065544 59 62 0.0 0.0 0.00 0.06 0.03 97 1013.0
20260906065043 59 62 0.0 0.0 0.00 0.06 0.03 97 1013.0
20260906064543 59 63 0.0 0.0 0.00 0.06 0.03 97 1013.0
20260906064044 59 63 0.0 0.0 0.00 0.06 0.03 97 1013.0
20260906063542 59 62 0.0 0.0 0.00 0.06 0.03 97 1013.0
20260906063043 59 63 0.0 0.0 0.00 0.06 0.03 97 1012.9
20260906062542 59 67 0.0 0.0 0.00 0.06 0.03 97 1013.0
20260906062042 59 67 0.0 0.0 0.00 0.06 0.03 97 1013.0
20260906061542 59 67 0.0 0.0 0.00 0.06 0.03 96 1013.0
20260906061041 59 67 0.0 0.0 0.01 0.06 0.03 96 1013.0
20260906060541 58 67 0.0 0.0 0.02 0.06 0.03 96 1013.1
20260906060040 58 67 0.0 0.0 0.02 0.06 0.03 96 1013.1
20260906055543 58 67 0.0 0.0 0.03 0.06 0.03 96 1013.2
20260906055040 58 67 0.0 0.0 0.03 0.06 0.03 96 1013.2
20260906054542 59 67 0.0 0.0 0.03 0.06 0.03 96 1013.2
20260906054038 59 67 0.0 0.0 0.03 0.06 0.03 95 1013.2
20260906053537 59 67 0.0 0.0 0.03 0.06 0.03 95 1013.2
20260906053040 59 67 0.0 0.0 0.03 0.06 0.03 95 1013.2
20260906052536 59 67 0.0 0.0 0.03 0.06 0.03 95 1013.2
20260906052037 60 67 0.0 0.0 0.03 0.06 0.03 95 1013.3
20260906051548 60 67 0.0 0.0 0.03 0.06 0.03 95 1013.3
20260906051035 60 67 0.0 0.0 0.02 0.05 0.02 94 1013.4
20260906050536 60 67 0.0 0.0 0.01 0.04 0.01 95 1013.4
20260906050034 60 67 0.0 3.0 0.01 0.04 0.01 94 1013.4
20260906045534 60 67 0.0 3.0 0.00 0.03 0.00 94 1013.3
20260906045033 60 83 0.0 1.0 0.00 0.03 0.00 95 1013.3
20260906044532 60 83 0.0 1.0 0.00 0.03 0.00 95 1013.3
20260906044031 60 88 0.0 1.0 0.00 0.03 0.00 95 1013.3
20260906043535 60 89 0.0 1.0 0.00 0.03 0.00 95 1013.3
20260906043033 60 89 0.0 1.0 0.00 0.03 0.00 95 1013.3
20260906042531 60 89 0.0 2.0 0.00 0.03 0.00 95 1013.4
20260906042030 60 89 0.0 2.0 0.00 0.03 0.00 95 1013.4
20260906041530 60 89 0.0 1.0 0.00 0.03 0.00 95 1013.3
20260906041032 60 89 0.0 0.0 0.00 0.03 0.00 95 1013.3
20260906040529 60 89 0.0 0.0 0.00 0.03 0.00 95 1013.2
20260906040032 60 89 0.0 0.0 0.00 0.03 0.00 95 1013.3
20260906035527 60 89 0.0 0.0 0.00 0.03 0.03 95 1013.2
20260906035032 60 89 0.0 0.0 0.00 0.03 0.03 95 1013.1
20260906034527 60 89 0.0 0.0 0.00 0.03 0.03 95 1013.1
20260906034026 60 89 0.0 0.0 0.00 0.03 0.03 95 1013.1
20260906033527 60 89 0.0 0.0 0.00 0.03 0.03 95 1013.1
20260906033037 61 89 0.0 0.0 0.00 0.03 0.03 95 1013.0
20260906032528 61 89 0.0 0.0 0.00 0.03 0.03 95 1013.1
20260906032026 61 89 0.0 0.0 0.00 0.03 0.03 95 1013.1
20260906031535 61 89 0.0 0.0 0.00 0.03 0.03 95 1013.1
20260906031025 61 89 0.0 0.0 0.00 0.03 0.03 95 1013.0
20260906030524 60 89 0.0 0.0 0.00 0.03 0.03 95 1013.0
20260906030023 60 89 0.0 0.0 0.00 0.03 0.03 95 1012.9
20260906025523 60 89 0.0 0.0 0.00 0.03 0.03 95 1012.9
20260906025024 60 89 0.0 0.0 0.00 0.03 0.03 95 1012.9
20260906024539 60 89 0.0 0.0 0.00 0.03 0.03 95 1012.8
20260906024022 60 89 0.0 0.0 0.00 0.03 0.03 95 1012.8
20260906023522 60 89 0.0 0.0 0.00 0.03 0.03 95 1012.8
20260906023025 60 89 0.0 0.0 0.00 0.03 0.03 95 1012.8
20260906022524 60 89 0.0 0.0 0.00 0.03 0.03 95 1012.8
20260906022021 60 89 0.0 0.0 0.00 0.03 0.03 95 1012.7
20260906021521 60 89 0.0 0.0 0.00 0.03 0.03 95 1012.7
20260906021020 60 89 0.0 0.0 0.00 0.03 0.03 95 1012.6
20260906020520 60 89 0.0 0.0 0.00 0.03 0.03 95 1012.6
20260906020019 60 89 0.0 1.0 0.00 0.03 0.03 95 1012.5
20260906015519 60 89 0.0 1.0 0.00 0.03 0.03 95 1012.5
20260906015020 60 89 0.0 1.0 0.00 0.03 0.03 95 1012.6
20260906014529 60 89 0.0 1.0 0.00 0.03 0.03 95 1012.6
20260906014017 60 89 0.0 1.0 0.00 0.03 0.03 95 1012.4
20260906013517 60 89 0.0 1.0 0.00 0.03 0.03 95 1012.4
20260906013035 60 89 0.0 1.0 0.00 0.03 0.03 95 1012.4
20260906012519 60 89 0.0 2.0 0.00 0.03 0.03 95 1012.3
20260906012017 60 89 0.0 2.0 0.00 0.03 0.03 95 1012.3
20260906011517 60 79 0.0 0.0 0.00 0.03 0.03 95 1012.4
20260906011016 60 79 0.0 1.0 0.00 0.03 0.03 95 1012.3
20260906010516 60 79 0.0 1.0 0.00 0.03 0.03 95 1012.3
20260906010022 60 79 0.0 1.0 0.00 0.03 0.03 95 1012.3
20260906005516 60 79 0.0 1.0 0.00 0.03 0.03 95 1012.3
20260906005016 61 79 0.0 1.0 0.00 0.03 0.03 95 1012.3
20260906004515 61 79 0.0 1.0 0.00 0.03 0.03 95 1012.3
20260906004018 61 79 0.0 1.0 0.00 0.03 0.03 95 1012.4
20260906003527 61 79 0.0 0.0 0.00 0.03 0.03 95 1012.4
20260906003015 61 79 0.0 0.0 0.00 0.03 0.03 95 1012.3
20260906002519 61 79 0.0 0.0 0.00 0.03 0.03 95 1012.3
20260906002007 61 79 0.0 0.0 0.00 0.03 0.03 95 1012.3
20260906001521 61 79 0.0 1.0 0.00 0.03 0.03 95 1012.3
20260906001019 60 79 0.0 1.0 0.00 0.03 0.03 95 1012.3
20260906000522 60 79 0.0 1.0 0.00 0.03 0.03 95 1012.2
20260906000010 60 79 0.0 1.0 0.00 0.03 0.03 94 1012.2
20260905235519 60 79 0.0 1.0 0.00 0.03 0.03 94 1012.0
20260905235024 60 79 0.0 1.0 0.00 0.03 0.03 94 1012.0
20260905234512 60 79 0.0 1.0 0.00 0.03 0.03 94 1011.9
20260905234014 61 79 0.0 1.0 0.00 0.03 0.03 94 1012.0
20260905233528 61 79 0.0 2.0 0.00 0.03 0.03 94 1012.1
20260905233011 61 79 0.0 2.0 0.00 0.03 0.03 94 1012.0
20260905232519 61 82 0.0 1.0 0.00 0.03 0.03 94 1012.0
20260905232020 61 90 0.0 0.0 0.00 0.03 0.03 93 1012.0
20260905231529 61 90 0.0 1.0 0.00 0.03 0.03 93 1012.0
20260905231012 61 90 0.0 1.0 0.00 0.03 0.03 93 1011.9
20260905230521 61 90 0.0 1.0 0.00 0.03 0.03 92 1011.9
20260905230023 62 79 0.0 1.0 0.00 0.03 0.03 92 1011.9
20260905225509 63 75 0.0 1.0 0.00 0.03 0.03 93 1011.9
20260905225016 63 74 0.0 1.0 0.00 0.03 0.03 93 1011.9
20260905224524 64 73 0.0 1.0 0.00 0.03 0.03 93 1011.8
20260905224008 64 72 0.0 0.0 0.00 0.03 0.03 93 1011.7
20260905223518 64 72 0.0 0.0 0.00 0.03 0.03 92 1011.7
20260905223017 64 72 0.0 0.0 0.00 0.03 0.03 92 1011.7
20260905222527 64 72 0.0 0.0 0.00 0.03 0.03 91 1011.5
20260905222012 65 72 0.0 0.0 0.00 0.03 0.03 90 1011.5
20260905221517 65 72 0.0 0.0 0.00 0.03 0.03 88 1011.5
20260905221020 66 72 0.0 1.0 0.00 0.03 0.03 88 1011.6
20260905220507 66 74 0.0 2.0 0.00 0.03 0.03 90 1011.5
20260905220013 65 309 0.0 2.0 0.00 0.03 0.03 94 1011.5
20260905215520 63 308 0.0 2.0 0.00 0.03 0.03 95 1011.4
20260905215011 62 78 0.0 0.0 0.00 0.03 0.03 95 1011.4
20260905214525 62 78 0.0 0.0 0.00 0.03 0.03 94 1011.3
20260905214022 62 78 0.0 2.0 0.00 0.03 0.03 94 1011.2
20260905213513 62 77 0.0 2.0 0.00 0.03 0.03 94 1011.2
20260905213018 62 87 0.0 2.0 0.00 0.03 0.03 94 1011.1
20260905212524 62 81 1.0 2.0 0.02 0.03 0.03 94 1011.1
20260905212009 62 79 0.0 2.0 0.03 0.03 0.03 94 1011.0
20260905211533 63 85 0.0 1.0 0.03 0.03 0.03 93 1011.1
20260905211018 63 84 0.0 1.0 0.03 0.03 0.03 93 1011.1
20260905210525 63 85 0.0 1.0 0.03 0.03 0.03 93 1011.1
20260905210011 63 101 0.0 2.0 0.03 0.03 0.03 93 1011.1
20260905205520 63 94 0.0 2.0 0.03 0.03 0.03 93 1011.1
20260905205021 63 71 0.0 1.0 0.03 0.03 0.03 93 1011.1
20260905204530 63 70 0.0 0.0 0.03 0.03 0.03 92 1011.1
20260905204013 63 71 0.0 1.0 0.03 0.03 0.03 91 1011.1
20260905203524 63 71 0.0 1.0 0.03 0.03 0.03 89 1011.1